Flag for Spain Weather past 2 weeks in Valladolid, Spain

Now
46 °F

Clear.


Feels Like: 41 °F
Forecast: 45 / 78 °F
Wind: 10 mph from Northeast

Location: Valladolid / Villanubla

Current Time: Sep 5, 2015 at 8:01:02 AM

Latest Report: Sep 5, 2015 at 7:30 AM


Visibility: 10 mi

Pressure: 30.12 "Hg (27.62 "Hg at 712m altitude)

Humidity: 93%

Dew point: 45 °F

Location of ValladolidLocation

Historic Weather in Valladolid — Graph

°F

Valladolid temperature yesterday

Maximum temperature yesterday: 72 °F (at 3:30 PM)
Minimum temperature yesterday: 50 °F (at 7:00 AM)
Average temperature yesterday: 63 °F

Past Weeks' High & Low Weather Summary

 TemperatureHumidityPressure
High95 °F (Aug 29, 6:30 PM)100% (Aug 24, 7:00 AM)30.21 "Hg (Aug 24, 7:00 AM)
Low46 °F (Aug 25, 7:30 AM)15% (Aug 21, 5:00 PM)29.80 "Hg (Aug 23, 8:30 PM)
Average71 °F50%30.05 "Hg
* Reported Aug 21 7:00 AM — Sep 5 7:00 AM, Valladolid, Weather by CustomWeather, © 2015

Note: Actual official high and low records may vary slightly from our data, if they occured in-between our weather recording intervals... More about our weather records

Advertising

Valladolid weather history for previous 24 hours

 ConditionsComfort  
Time TempWeatherWind HumidityBarometerVisibility
7:00 AM
Sat, Sep 5
46 °FClear.12 mph93%30.12 "Hg10 mi
10:00 PM
Fri, Sep 4
59 °FClear.17 mph59%30.09 "Hg10 mi
9:30 PM59 °FSunny.15 mph59%30.07 "Hg10 mi
9:00 PM61 °FSunny.16 mph55%30.07 "Hg10 mi
8:30 PM63 °FSunny.17 mph52%30.04 "Hg10 mi
8:00 PM66 °FSunny.17 mph46%30.04 "Hg10 mi
7:30 PM68 °FSunny.12 mph38%30.04 "Hg10 mi
7:00 PM70 °FPassing clouds.9 mph33%30.04 "HgN/A
6:30 PM72 °FPassing clouds.9 mph33%30.04 "HgN/A
6:00 PM70 °FPassing clouds.10 mph33%30.04 "HgN/A
5:30 PM70 °FPassing clouds.9 mph35%30.04 "HgN/A
5:00 PM72 °FPassing clouds.13 mph33%30.04 "HgN/A
4:30 PM72 °FPassing clouds.10 mph33%30.04 "HgN/A
4:00 PM70 °FPassing clouds.8 mph35%30.04 "HgN/A
3:30 PM72 °FPassing clouds.7 mph36%30.04 "HgN/A
3:00 PM70 °FPassing clouds.12 mph40%30.04 "HgN/A
2:30 PM70 °FPassing clouds.12 mph38%30.04 "HgN/A
2:00 PM68 °FPassing clouds.13 mph40%30.04 "HgN/A
1:30 PM66 °FPassing clouds.12 mph46%30.07 "HgN/A
1:00 PM66 °FPassing clouds.12 mph49%30.07 "HgN/A
12:30 PM64 °FPassing clouds.13 mph52%30.07 "HgN/A
12:00 PM63 °FPassing clouds.14 mph59%30.07 "HgN/A
11:30 AM61 °FSunny.14 mph63%30.07 "Hg10 mi
11:00 AM59 °FPassing clouds.14 mph68%30.07 "HgN/A
10:30 AM57 °FPassing clouds.14 mph72%30.07 "HgN/A
10:00 AM55 °FPassing clouds.15 mph77%30.04 "HgN/A
9:30 AM54 °FSunny.17 mph82%30.04 "Hg10 mi
9:00 AM52 °FSunny.14 mph88%30.04 "Hg10 mi
8:30 AM50 °FClear.12 mph88%30.04 "Hg10 mi
8:00 AM50 °FClear.13 mph88%30.04 "Hg10 mi
Weather by CustomWeather, © 2015

See weather overviewHow to use our weather pages